{"data":{"norad_id":65513,"intl_designator":"2025-198X","name":"STARLINK-35019","alt_names":[],"object_type":"PAYLOAD","status":"ACTIVE","operator":null,"country":"US","launch_date":"2025-09-05","launch_site_code":"AFETR","launch_vehicle":null,"mission":null,"orbit_class":"UNKNOWN","rcs_meters":null,"size_class":null,"mass_kg":null,"dimensions":null,"purposes":["comms"],"wikipedia_slug":null,"has_3d_model":false,"image_url":null,"decayed_at":null,"tle_current":{"epoch":"2026-05-24T19:21:52.309152Z","epoch_age_seconds":92069,"freshness":"FRESH","line1":"1 65513U 25198X   26144.80685543  .00024225  00000+0  72575-3 0  9994","line2":"2 65513  53.1582 276.7530 0000832  96.3414 263.7684 15.34401937 40283","mean_motion":15.34401937,"eccentricity":8.32e-5,"inclination_deg":53.1582,"raan_deg":276.753,"arg_perigee_deg":96.3414,"mean_anomaly_deg":263.7684,"bstar":0.00072575,"rev_number":4028,"period_min":93.847639609699,"perigee_km":462.12832561197,"apogee_km":463.26664046995,"semimajor_km":6840.834483041,"source":"CELESTRAK","updated_at":"2026-05-25T13:38:20.844196Z"}}}